Time,TemperatureF,DewpointF,PressureIn,WindDirection,WindDirectionDegrees,WindSpeedMPH,WindSpeedGustMPH,Humidity,HourlyPrecipIn,Conditions,Clouds,dailyrainin,SoftwareType,DateUTC
2013-02-22 00:00:00,25.5,16.4,30.12,SSW,205,1.0,0.0,68,0.00,,,0.00,WeatherTracker,2013-02-22 05:00:00,
2013-02-22 00:05:00,25.6,16.5,30.12,West,262,0.0,0.0,68,0.00,,,0.00,WeatherTracker,2013-02-22 05:05:00,
2013-02-22 00:10:00,25.6,16.5,30.12,WSW,243,3.0,0.0,68,0.00,,,0.00,WeatherTracker,2013-02-22 05:10:00,
2013-02-22 00:15:00,25.5,16.4,30.12,West,261,4.0,0.0,68,0.00,,,0.00,WeatherTracker,2013-02-22 05:15:00,
2013-02-22 00:20:00,25.5,16.4,30.13,West,267,2.0,0.0,68,0.00,,,0.00,WeatherTracker,2013-02-22 05:20:00,
2013-02-22 00:25:00,25.4,16.3,30.14,West,280,2.0,0.0,68,0.00,,,0.00,WeatherTracker,2013-02-22 05:25:00,
2013-02-22 00:30:00,25.5,16.4,30.14,West,267,3.0,0.0,68,0.00,,,0.00,WeatherTracker,2013-02-22 05:30:00,
2013-02-22 00:35:00,25.7,16.6,30.15,West,267,3.0,0.0,68,0.00,,,0.00,WeatherTracker,2013-02-22 05:35:00,
2013-02-22 00:40:00,25.7,16.6,30.16,West,263,3.0,0.0,68,0.00,,,0.00,WeatherTracker,2013-02-22 05:40:00,
2013-02-22 00:46:00,25.7,16.6,30.16,NNW,336,1.0,0.0,68,0.00,,,0.00,WeatherTracker,2013-02-22 05:46:00,
2013-02-22 00:51:00,25.7,16.6,30.16,West,274,1.0,0.0,68,0.00,,,0.00,WeatherTracker,2013-02-22 05:51:00,
2013-02-22 00:56:00,25.8,16.7,30.16,West,271,1.0,0.0,68,0.00,,,0.00,WeatherTracker,2013-02-22 05:56:00,
2013-02-22 01:01:00,25.7,16.6,30.17,WSW,245,0.0,0.0,68,0.00,,,0.00,WeatherTracker,2013-02-22 06:01:00,
2013-02-22 01:06:00,25.8,16.7,30.17,WSW,255,3.0,0.0,68,0.00,,,0.00,WeatherTracker,2013-02-22 06:06:00,
2013-02-22 01:11:00,25.8,16.7,30.17,WSW,253,4.0,0.0,68,0.00,,,0.00,WeatherTracker,2013-02-22 06:11:00,
2013-02-22 01:16:00,25.9,16.8,30.17,West,268,1.0,0.0,68,0.00,,,0.00,WeatherTracker,2013-02-22 06:16:00,
2013-02-22 01:21:00,25.8,17.1,30.16,West,271,2.0,0.0,69,0.00,,,0.00,WeatherTracker,2013-02-22 06:21:00,
2013-02-22 01:26:00,25.8,17.1,30.17,NNW,328,0.0,0.0,69,0.00,,,0.00,WeatherTracker,2013-02-22 06:26:00,
2013-02-22 01:31:00,25.7,17.0,30.17,NNW,342,4.0,0.0,69,0.00,,,0.00,WeatherTracker,2013-02-22 06:31:00,
2013-02-22 01:36:00,25.8,17.1,30.17,West,265,1.0,0.0,69,0.00,,,0.00,WeatherTracker,2013-02-22 06:36:00,
2013-02-22 01:41:00,25.7,17.0,30.17,WNW,297,1.0,0.0,69,0.00,,,0.00,WeatherTracker,2013-02-22 06:41:00,
2013-02-22 01:46:00,25.6,17.2,30.16,West,273,0.0,0.0,70,0.00,,,0.00,WeatherTracker,2013-02-22 06:46:00,
2013-02-22 01:51:00,25.6,17.2,30.16,West,265,2.0,0.0,70,0.00,,,0.00,WeatherTracker,2013-02-22 06:51:00,
2013-02-22 01:56:00,25.5,17.4,30.16,NNW,327,2.0,0.0,71,0.00,,,0.00,WeatherTracker,2013-02-22 06:56:00,
2013-02-22 02:01:00,25.6,17.2,30.16,WNW,301,2.0,0.0,70,0.00,,,0.00,WeatherTracker,2013-02-22 07:01:00,
2013-02-22 02:06:00,25.7,17.6,30.17,WNW,302,2.0,0.0,71,0.00,,,0.00,WeatherTracker,2013-02-22 07:06:00,
2013-02-22 02:11:00,25.9,17.8,30.17,NNW,336,3.0,0.0,71,0.00,,,0.00,WeatherTracker,2013-02-22 07:11:00,
2013-02-22 02:16:00,26.0,17.9,30.17,NW,321,0.0,0.0,71,0.00,,,0.00,WeatherTracker,2013-02-22 07:16:00,
2013-02-22 02:21:00,26.1,18.0,30.17,WSW,254,1.0,0.0,71,0.00,,,0.00,WeatherTracker,2013-02-22 07:21:00,
2013-02-22 02:26:00,26.2,18.1,30.18,West,280,0.0,0.0,71,0.00,,,0.00,WeatherTracker,2013-02-22 07:26:00,
2013-02-22 02:31:00,26.2,18.1,30.18,West,275,1.0,0.0,71,0.00,,,0.00,WeatherTracker,2013-02-22 07:31:00,
2013-02-22 02:36:00,26.2,18.1,30.17,SSE,166,0.0,0.0,71,0.00,,,0.00,WeatherTracker,2013-02-22 07:36:00,
2013-02-22 02:41:00,26.3,18.2,30.18,West,271,1.0,0.0,71,0.00,,,0.00,WeatherTracker,2013-02-22 07:41:00,
2013-02-22 02:46:00,26.3,18.2,30.18,West,267,3.0,0.0,71,0.00,,,0.00,WeatherTracker,2013-02-22 07:46:00,
2013-02-22 02:51:00,26.3,18.2,30.18,West,273,1.0,0.0,71,0.00,,,0.00,WeatherTracker,2013-02-22 07:51:00,
2013-02-22 02:57:00,26.3,18.2,30.18,West,276,1.0,0.0,71,0.00,,,0.00,WeatherTracker,2013-02-22 07:57:00,
2013-02-22 03:02:00,26.3,18.2,30.18,West,263,2.0,0.0,71,0.00,,,0.00,WeatherTracker,2013-02-22 08:02:00,
2013-02-22 03:07:00,26.4,18.3,30.19,WSW,251,0.0,0.0,71,0.00,,,0.00,WeatherTracker,2013-02-22 08:07:00,
2013-02-22 03:12:00,26.3,18.2,30.19,WSW,244,1.0,0.0,71,0.00,,,0.00,WeatherTracker,2013-02-22 08:12:00,
2013-02-22 03:17:00,26.4,18.3,30.20,West,259,1.0,0.0,71,0.00,,,0.00,WeatherTracker,2013-02-22 08:17:00,
2013-02-22 03:22:00,26.4,18.6,30.20,West,277,1.0,0.0,72,0.00,,,0.00,WeatherTracker,2013-02-22 08:22:00,
2013-02-22 03:27:00,26.4,18.6,30.20,SSW,211,2.0,0.0,72,0.00,,,0.00,WeatherTracker,2013-02-22 08:27:00,
2013-02-22 03:32:00,26.4,18.6,30.20,SSW,213,0.0,0.0,72,0.00,,,0.00,WeatherTracker,2013-02-22 08:32:00,
2013-02-22 03:37:00,26.4,18.6,30.20,West,267,1.0,0.0,72,0.00,,,0.00,WeatherTracker,2013-02-22 08:37:00,
2013-02-22 03:42:00,26.4,18.6,30.20,WNW,296,3.0,0.0,72,0.00,,,0.00,WeatherTracker,2013-02-22 08:42:00,
2013-02-22 03:47:00,26.5,18.7,30.20,NNW,341,0.0,0.0,72,0.00,,,0.00,WeatherTracker,2013-02-22 08:47:00,
2013-02-22 03:52:00,26.5,19.0,30.20,WNW,285,0.0,0.0,73,0.00,,,0.00,WeatherTracker,2013-02-22 08:52:00,
2013-02-22 03:57:00,26.6,19.1,30.21,West,263,0.0,0.0,73,0.00,,,0.00,WeatherTracker,2013-02-22 08:57:00,
2013-02-22 04:02:00,26.6,18.8,30.20,NW,322,4.0,0.0,72,0.00,,,0.00,WeatherTracker,2013-02-22 09:02:00,
2013-02-22 04:07:00,26.6,18.8,30.21,West,279,0.0,0.0,72,0.00,,,0.00,WeatherTracker,2013-02-22 09:07:00,
2013-02-22 04:12:00,26.6,18.8,30.21,NW,307,3.0,0.0,72,0.00,,,0.00,WeatherTracker,2013-02-22 09:12:00,
2013-02-22 04:17:00,26.5,19.0,30.21,WNW,298,3.0,0.0,73,0.00,,,0.00,WeatherTracker,2013-02-22 09:17:00,
2013-02-22 04:22:00,26.5,19.0,30.21,West,268,0.0,0.0,73,0.00,,,0.00,WeatherTracker,2013-02-22 09:22:00,
2013-02-22 04:27:00,26.5,19.0,30.21,West,265,0.0,0.0,73,0.00,,,0.00,WeatherTracker,2013-02-22 09:27:00,
2013-02-22 04:32:00,26.6,19.1,30.21,West,262,0.0,0.0,73,0.00,,,0.00,WeatherTracker,2013-02-22 09:32:00,
2013-02-22 04:37:00,26.6,19.1,30.21,West,271,0.0,0.0,73,0.00,,,0.00,WeatherTracker,2013-02-22 09:37:00,
2013-02-22 04:42:00,26.5,19.0,30.21,WNW,300,0.0,0.0,73,0.00,,,0.00,WeatherTracker,2013-02-22 09:42:00,
2013-02-22 04:47:00,26.3,18.8,30.21,WNW,299,2.0,0.0,73,0.00,,,0.00,WeatherTracker,2013-02-22 09:47:00,
2013-02-22 04:52:00,26.2,19.1,30.21,WNW,299,0.0,0.0,74,0.00,,,0.00,WeatherTracker,2013-02-22 09:52:00,
2013-02-22 04:58:00,26.1,19.0,30.21,WSW,245,0.0,0.0,74,0.00,,,0.00,WeatherTracker,2013-02-22 09:58:00,
2013-02-22 05:03:00,26.0,18.9,30.22,WSW,241,1.0,0.0,74,0.00,,,0.00,WeatherTracker,2013-02-22 10:03:00,
2013-02-22 05:08:00,25.9,18.8,30.23,WSW,241,0.0,0.0,74,0.00,,,0.00,WeatherTracker,2013-02-22 10:08:00,
2013-02-22 05:13:00,25.8,19.0,30.23,WSW,241,0.0,0.0,75,0.00,,,0.00,WeatherTracker,2013-02-22 10:13:00,
2013-02-22 05:18:00,25.8,19.0,30.23,West,273,0.0,0.0,75,0.00,,,0.00,WeatherTracker,2013-02-22 10:18:00,
2013-02-22 05:23:00,25.7,18.9,30.23,West,273,1.0,0.0,75,0.00,,,0.00,WeatherTracker,2013-02-22 10:23:00,
2013-02-22 05:28:00,25.7,18.9,30.24,West,272,0.0,0.0,75,0.00,,,0.00,WeatherTracker,2013-02-22 10:28:00,
2013-02-22 05:33:00,25.6,18.8,30.25,West,272,0.0,0.0,75,0.00,,,0.00,WeatherTracker,2013-02-22 10:33:00,
2013-02-22 05:38:00,25.5,18.7,30.25,West,272,0.0,0.0,75,0.00,,,0.00,WeatherTracker,2013-02-22 10:38:00,
2013-02-22 05:43:00,25.4,18.9,30.25,West,267,2.0,0.0,76,0.00,,,0.00,WeatherTracker,2013-02-22 10:43:00,
2013-02-22 05:48:00,25.3,18.8,30.25,West,267,0.0,0.0,76,0.00,,,0.00,WeatherTracker,2013-02-22 10:48:00,
2013-02-22 05:53:00,25.2,18.7,30.25,West,267,0.0,0.0,76,0.00,,,0.00,WeatherTracker,2013-02-22 10:53:00,
2013-02-22 05:58:00,25.0,18.5,30.25,West,267,0.0,0.0,76,0.00,,,0.00,WeatherTracker,2013-02-22 10:58:00,
2013-02-22 06:03:00,24.8,18.6,30.26,West,267,0.0,0.0,77,0.00,,,0.00,WeatherTracker,2013-02-22 11:03:00,
2013-02-22 06:08:00,24.6,18.4,30.26,West,267,0.0,0.0,77,0.00,,,0.00,WeatherTracker,2013-02-22 11:08:00,
2013-02-22 06:13:00,24.5,18.6,30.27,West,267,0.0,0.0,78,0.00,,,0.00,WeatherTracker,2013-02-22 11:13:00,
2013-02-22 06:18:00,24.4,18.5,30.27,West,267,0.0,0.0,78,0.00,,,0.00,WeatherTracker,2013-02-22 11:18:00,
2013-02-22 06:23:00,24.3,18.4,30.27,West,267,0.0,0.0,78,0.00,,,0.00,WeatherTracker,2013-02-22 11:23:00,
2013-02-22 06:28:00,24.3,18.4,30.28,West,267,0.0,0.0,78,0.00,,,0.00,WeatherTracker,2013-02-22 11:28:00,
2013-02-22 06:33:00,24.4,18.5,30.28,West,267,2.0,0.0,78,0.00,,,0.00,WeatherTracker,2013-02-22 11:33:00,
2013-02-22 06:38:00,24.5,18.6,30.28,WSW,237,0.0,0.0,78,0.00,,,0.00,WeatherTracker,2013-02-22 11:38:00,
2013-02-22 06:43:00,24.5,18.6,30.29,WSW,237,0.0,0.0,78,0.00,,,0.00,WeatherTracker,2013-02-22 11:43:00,
2013-02-22 06:48:00,24.6,18.7,30.29,SW,218,1.0,0.0,78,0.00,,,0.00,WeatherTracker,2013-02-22 11:48:00,
2013-02-22 06:53:00,24.7,18.8,30.29,WSW,252,0.0,0.0,78,0.00,,,0.00,WeatherTracker,2013-02-22 11:53:00,
2013-02-22 06:59:00,24.8,18.9,30.30,WSW,252,0.0,0.0,78,0.00,,,0.00,WeatherTracker,2013-02-22 11:59:00,
2013-02-22 07:04:00,24.8,18.6,30.30,WSW,251,1.0,0.0,77,0.00,,,0.00,WeatherTracker,2013-02-22 12:04:00,
2013-02-22 07:09:00,24.8,18.6,30.31,WSW,253,0.0,0.0,77,0.00,,,0.00,WeatherTracker,2013-02-22 12:09:00,
2013-02-22 07:14:00,24.8,18.9,30.30,WSW,253,0.0,0.0,78,0.00,,,0.00,WeatherTracker,2013-02-22 12:14:00,
2013-02-22 07:19:00,24.8,18.9,30.31,SW,232,0.0,0.0,78,0.00,,,0.00,WeatherTracker,2013-02-22 12:19:00,
2013-02-22 07:24:00,24.9,18.7,30.31,SW,232,0.0,0.0,77,0.00,,,0.00,WeatherTracker,2013-02-22 12:24:00,
2013-02-22 07:29:00,25.0,19.1,30.31,SW,232,0.0,0.0,78,0.00,,,0.00,WeatherTracker,2013-02-22 12:29:00,
2013-02-22 07:34:00,25.2,19.3,30.31,SW,232,0.0,0.0,78,0.00,,,0.00,WeatherTracker,2013-02-22 12:34:00,
2013-02-22 07:39:00,25.4,19.2,30.31,SW,232,1.0,0.0,77,0.00,,,0.00,WeatherTracker,2013-02-22 12:39:00,
2013-02-22 07:44:00,25.7,19.5,30.31,SW,232,0.0,0.0,77,0.00,,,0.00,WeatherTracker,2013-02-22 12:44:00,
2013-02-22 07:49:00,25.9,19.4,30.31,SW,232,0.0,0.0,76,0.00,,,0.00,WeatherTracker,2013-02-22 12:49:00,
2013-02-22 07:54:00,26.0,19.5,30.31,WSW,244,1.0,0.0,76,0.00,,,0.00,WeatherTracker,2013-02-22 12:54:00,
2013-02-22 07:59:00,26.0,19.5,30.31,West,259,0.0,0.0,76,0.00,,,0.00,WeatherTracker,2013-02-22 12:59:00,
2013-02-22 08:04:00,26.1,19.3,30.32,West,268,1.0,0.0,75,0.00,,,0.00,WeatherTracker,2013-02-22 13:04:00,
2013-02-22 08:09:00,26.2,19.4,30.32,West,268,0.0,0.0,75,0.00,,,0.00,WeatherTracker,2013-02-22 13:09:00,
2013-02-22 08:14:00,26.5,20.0,30.31,NNE,24,1.0,0.0,76,0.00,,,0.00,WeatherTracker,2013-02-22 13:14:00,
2013-02-22 08:19:00,26.9,20.1,30.31,WNW,285,0.0,0.0,75,0.00,,,0.00,WeatherTracker,2013-02-22 13:19:00,
2013-02-22 08:24:00,27.4,20.2,30.31,WNW,290,0.0,0.0,74,0.00,,,0.00,WeatherTracker,2013-02-22 13:24:00,
2013-02-22 08:29:00,27.9,20.4,30.31,NW,308,1.0,0.0,73,0.00,,,0.00,WeatherTracker,2013-02-22 13:29:00,
2013-02-22 08:34:00,28.4,20.5,30.31,SW,232,1.0,0.0,72,0.00,,,0.00,WeatherTracker,2013-02-22 13:34:00,
2013-02-22 08:39:00,28.9,20.7,30.30,NW,308,0.0,0.0,71,0.00,,,0.00,WeatherTracker,2013-02-22 13:39:00,
2013-02-22 08:45:00,29.5,20.9,30.30,North,349,0.0,0.0,70,0.00,,,0.00,WeatherTracker,2013-02-22 13:45:00,
2013-02-22 08:50:00,30.0,21.1,30.30,North,10,0.0,0.0,69,0.00,,,0.00,WeatherTracker,2013-02-22 13:50:00,
2013-02-22 08:55:00,30.5,21.2,30.30,NNE,28,3.0,0.0,68,0.00,,,0.00,WeatherTracker,2013-02-22 13:55:00,
2013-02-22 09:00:00,31.0,21.3,30.30,NNW,341,2.0,0.0,67,0.00,,,0.00,WeatherTracker,2013-02-22 14:00:00,
2013-02-22 09:05:00,31.3,21.3,30.30,NE,36,3.0,0.0,66,0.00,,,0.00,WeatherTracker,2013-02-22 14:05:00,
2013-02-22 09:10:00,31.9,21.9,30.30,NNE,20,0.0,0.0,66,0.00,,,0.00,WeatherTracker,2013-02-22 14:10:00,
2013-02-22 09:15:00,32.6,22.2,30.29,NW,310,0.0,0.0,65,0.00,,,0.00,WeatherTracker,2013-02-22 14:15:00,
2013-02-22 09:20:00,33.1,22.3,30.30,NE,41,5.0,0.0,64,0.00,,,0.00,WeatherTracker,2013-02-22 14:20:00,
2013-02-22 09:25:00,33.3,21.7,30.30,NNE,28,4.0,0.0,62,0.00,,,0.00,WeatherTracker,2013-02-22 14:25:00,
2013-02-22 09:30:00,33.4,22.2,30.30,North,9,1.0,0.0,63,0.00,,,0.00,WeatherTracker,2013-02-22 14:30:00,
2013-02-22 09:35:00,33.8,22.2,30.30,NW,313,2.0,0.0,62,0.00,,,0.00,WeatherTracker,2013-02-22 14:35:00,
2013-02-22 09:40:00,33.9,22.3,30.30,WNW,285,2.0,0.0,62,0.00,,,0.00,WeatherTracker,2013-02-22 14:40:00,
2013-02-22 09:45:00,33.8,22.2,30.30,North,5,1.0,0.0,62,0.00,,,0.00,WeatherTracker,2013-02-22 14:45:00,
2013-02-22 09:50:00,34.2,22.6,30.30,North,9,0.0,0.0,62,0.00,,,0.00,WeatherTracker,2013-02-22 14:50:00,
2013-02-22 09:55:00,34.5,22.5,30.30,NNE,21,4.0,0.0,61,0.00,,,0.00,WeatherTracker,2013-02-22 14:55:00,
2013-02-22 10:00:00,34.5,22.5,30.30,NW,309,1.0,0.0,61,0.00,,,0.00,WeatherTracker,2013-02-22 15:00:00,
2013-02-22 10:05:00,34.7,23.0,30.30,NW,320,0.0,0.0,62,0.00,,,0.00,WeatherTracker,2013-02-22 15:05:00,
2013-02-22 10:10:00,34.9,22.8,30.31,North,5,3.0,0.0,61,0.00,,,0.00,WeatherTracker,2013-02-22 15:10:00,
2013-02-22 10:15:00,35.2,23.5,30.30,NNE,18,0.0,0.0,62,0.00,,,0.00,WeatherTracker,2013-02-22 15:15:00,
2013-02-22 10:20:00,35.4,23.3,30.31,North,5,0.0,0.0,61,0.00,,,0.00,WeatherTracker,2013-02-22 15:20:00,
2013-02-22 10:26:00,35.8,23.7,30.31,North,360,0.0,0.0,61,0.00,,,0.00,WeatherTracker,2013-02-22 15:26:00,
2013-02-22 10:31:00,35.8,23.3,30.31,NNE,16,3.0,0.0,60,0.00,,,0.00,WeatherTracker,2013-02-22 15:31:00,
2013-02-22 10:36:00,35.9,23.8,30.31,NNE,29,3.0,0.0,61,0.00,,,0.00,WeatherTracker,2013-02-22 15:36:00,
2013-02-22 10:41:00,36.4,23.5,30.30,NNW,336,0.0,0.0,59,0.00,,,0.00,WeatherTracker,2013-02-22 15:41:00,
2013-02-22 10:46:00,36.3,23.0,30.30,NNE,15,3.0,0.0,58,0.00,,,0.00,WeatherTracker,2013-02-22 15:46:00,
2013-02-22 10:51:00,36.3,23.4,30.30,NNE,24,5.0,0.0,59,0.01,,,0.01,WeatherTracker,2013-02-22 15:51:00,
2013-02-22 10:56:00,36.3,23.8,30.30,North,9,4.0,0.0,60,0.01,,,0.01,WeatherTracker,2013-02-22 15:56:00,
2013-02-22 11:01:00,36.5,23.6,30.30,ENE,65,1.0,0.0,59,0.01,,,0.01,WeatherTracker,2013-02-22 16:01:00,
2013-02-22 11:06:00,36.4,23.1,30.30,NE,34,5.0,0.0,58,0.01,,,0.01,WeatherTracker,2013-02-22 16:06:00,
2013-02-22 11:11:00,36.5,23.6,30.30,NNW,336,2.0,0.0,59,0.01,,,0.01,WeatherTracker,2013-02-22 16:11:00,
2013-02-22 11:16:00,36.6,23.6,30.30,NNE,19,12.0,0.0,59,0.01,,,0.01,WeatherTracker,2013-02-22 16:16:00,
2013-02-22 11:21:00,36.1,23.6,30.29,NNE,17,4.0,0.0,60,0.01,,,0.01,WeatherTracker,2013-02-22 16:21:00,
2013-02-22 11:26:00,36.3,23.8,30.30,NNE,24,7.0,0.0,60,0.01,,,0.01,WeatherTracker,2013-02-22 16:26:00,
2013-02-22 11:31:00,36.1,23.6,30.30,NE,43,5.0,0.0,60,0.01,,,0.01,WeatherTracker,2013-02-22 16:31:00,
2013-02-22 11:36:00,35.8,23.3,30.29,South,181,1.0,0.0,60,0.02,,,0.02,WeatherTracker,2013-02-22 16:36:00,
2013-02-22 11:41:00,35.4,23.3,30.30,ENE,68,2.0,0.0,61,0.02,,,0.02,WeatherTracker,2013-02-22 16:41:00,
2013-02-22 11:46:00,35.6,23.5,30.29,East,86,9.0,0.0,61,0.02,,,0.02,WeatherTracker,2013-02-22 16:46:00,
2013-02-22 11:51:00,35.8,24.1,30.29,NNE,18,5.0,0.0,62,0.01,,,0.02,WeatherTracker,2013-02-22 16:51:00,
2013-02-22 11:56:00,36.2,24.1,30.29,NE,50,3.0,0.0,61,0.01,,,0.02,WeatherTracker,2013-02-22 16:56:00,
2013-02-22 12:01:00,36.1,23.6,30.29,NNE,19,6.0,0.0,60,0.01,,,0.02,WeatherTracker,2013-02-22 17:01:00,
2013-02-22 12:06:00,35.9,23.4,30.29,NNE,32,3.0,0.0,60,0.01,,,0.02,WeatherTracker,2013-02-22 17:06:00,
2013-02-22 12:11:00,35.7,23.6,30.29,NNE,18,1.0,0.0,61,0.01,,,0.02,WeatherTracker,2013-02-22 17:11:00,
2013-02-22 12:16:00,36.0,23.5,30.29,ENE,65,5.0,0.0,60,0.01,,,0.02,WeatherTracker,2013-02-22 17:16:00,
2013-02-22 12:22:00,35.7,23.6,30.29,East,82,0.0,0.0,61,0.01,,,0.02,WeatherTracker,2013-02-22 17:22:00,
2013-02-22 12:27:00,35.9,23.8,30.29,ENE,59,0.0,0.0,61,0.01,,,0.02,WeatherTracker,2013-02-22 17:27:00,
2013-02-22 12:32:00,35.8,23.7,30.29,NE,43,3.0,0.0,61,0.01,,,0.02,WeatherTracker,2013-02-22 17:32:00,
2013-02-22 12:37:00,35.5,23.8,30.29,East,84,1.0,0.0,62,0.00,,,0.02,WeatherTracker,2013-02-22 17:37:00,
2013-02-22 12:42:00,35.9,24.9,30.29,ESE,107,2.0,0.0,64,0.00,,,0.02,WeatherTracker,2013-02-22 17:42:00,
2013-02-22 12:47:00,36.0,24.3,30.29,ENE,71,2.0,0.0,62,0.00,,,0.02,WeatherTracker,2013-02-22 17:47:00,
2013-02-22 12:52:00,36.0,24.3,30.29,ENE,74,2.0,0.0,62,0.00,,,0.02,WeatherTracker,2013-02-22 17:52:00,
2013-02-22 12:57:00,36.3,24.5,30.29,ENE,69,4.0,0.0,62,0.00,,,0.02,WeatherTracker,2013-02-22 17:57:00,
2013-02-22 13:02:00,36.5,24.3,30.29,NNE,32,3.0,0.0,61,0.00,,,0.02,WeatherTracker,2013-02-22 18:02:00,
2013-02-22 13:07:00,36.6,24.4,30.29,ENE,67,2.0,0.0,61,0.00,,,0.02,WeatherTracker,2013-02-22 18:07:00,
2013-02-22 13:12:00,36.5,24.3,30.29,NNE,21,0.0,0.0,61,0.00,,,0.02,WeatherTracker,2013-02-22 18:12:00,
2013-02-22 13:17:00,36.4,24.3,30.29,NNE,27,7.0,0.0,61,0.01,,,0.03,WeatherTracker,2013-02-22 18:17:00,
2013-02-22 13:22:00,36.3,24.5,30.30,NNE,18,2.0,0.0,62,0.01,,,0.03,WeatherTracker,2013-02-22 18:22:00,
2013-02-22 13:27:00,36.9,25.5,30.29,SE,142,2.0,0.0,63,0.01,,,0.03,WeatherTracker,2013-02-22 18:27:00,
2013-02-22 13:32:00,36.9,24.7,30.29,SE,125,3.0,0.0,61,0.01,,,0.03,WeatherTracker,2013-02-22 18:32:00,
2013-02-22 13:37:00,36.9,25.1,30.29,East,79,2.0,0.0,62,0.01,,,0.03,WeatherTracker,2013-02-22 18:37:00,
2013-02-22 13:42:00,36.8,25.0,30.30,North,5,7.0,0.0,62,0.01,,,0.03,WeatherTracker,2013-02-22 18:42:00,
2013-02-22 13:47:00,36.7,24.9,30.30,NNE,16,4.0,0.0,62,0.01,,,0.03,WeatherTracker,2013-02-22 18:47:00,
2013-02-22 13:52:00,36.5,24.7,30.29,SE,125,3.0,0.0,62,0.01,,,0.03,WeatherTracker,2013-02-22 18:52:00,
2013-02-22 13:57:00,36.1,24.4,30.29,ENE,59,0.0,0.0,62,0.01,,,0.03,WeatherTracker,2013-02-22 18:57:00,
2013-02-22 14:02:00,36.2,25.2,30.28,NNE,27,0.0,0.0,64,0.01,,,0.03,WeatherTracker,2013-02-22 19:02:00,
2013-02-22 14:07:00,36.4,25.0,30.28,North,5,4.0,0.0,63,0.02,,,0.04,WeatherTracker,2013-02-22 19:07:00,
2013-02-22 14:13:00,36.8,25.4,30.28,ENE,76,1.0,0.0,63,0.02,,,0.04,WeatherTracker,2013-02-22 19:13:00,
2013-02-22 14:18:00,36.7,24.9,30.28,East,88,3.0,0.0,62,0.01,,,0.04,WeatherTracker,2013-02-22 19:18:00,
2013-02-22 14:23:00,36.4,24.6,30.29,ESE,108,1.0,0.0,62,0.01,,,0.04,WeatherTracker,2013-02-22 19:23:00,
2013-02-22 14:28:00,36.2,24.8,30.29,East,98,3.0,0.0,63,0.01,,,0.04,WeatherTracker,2013-02-22 19:28:00,
2013-02-22 14:33:00,36.1,24.4,30.29,ESE,111,2.0,0.0,62,0.01,,,0.04,WeatherTracker,2013-02-22 19:33:00,
2013-02-22 14:38:00,35.9,24.5,30.28,NE,40,3.0,0.0,63,0.01,,,0.04,WeatherTracker,2013-02-22 19:38:00,
2013-02-22 14:43:00,35.7,24.4,30.29,NE,46,1.0,0.0,63,0.01,,,0.04,WeatherTracker,2013-02-22 19:43:00,
2013-02-22 14:48:00,35.7,24.4,30.29,NNE,31,2.0,0.0,63,0.01,,,0.04,WeatherTracker,2013-02-22 19:48:00,
2013-02-22 14:53:00,36.0,25.0,30.29,North,355,1.0,0.0,64,0.01,,,0.04,WeatherTracker,2013-02-22 19:53:00,
2013-02-22 14:58:00,36.4,24.6,30.28,East,98,2.0,0.0,62,0.01,,,0.04,WeatherTracker,2013-02-22 19:58:00,
2013-02-22 15:03:00,36.3,24.2,30.29,NE,44,3.0,0.0,61,0.01,,,0.04,WeatherTracker,2013-02-22 20:03:00,
2013-02-22 15:08:00,36.2,24.5,30.29,NNE,21,5.0,0.0,62,0.00,,,0.04,WeatherTracker,2013-02-22 20:08:00,
2013-02-22 15:13:00,35.9,24.2,30.28,NE,46,3.0,0.0,62,0.00,,,0.04,WeatherTracker,2013-02-22 20:13:00,
2013-02-22 15:18:00,35.8,24.1,30.28,NNE,22,0.0,0.0,62,0.00,,,0.04,WeatherTracker,2013-02-22 20:18:00,
2013-02-22 15:23:00,35.8,24.5,30.28,ENE,59,5.0,0.0,63,0.00,,,0.04,WeatherTracker,2013-02-22 20:23:00,
2013-02-22 15:28:00,35.9,24.2,30.28,ENE,59,0.0,0.0,62,0.00,,,0.04,WeatherTracker,2013-02-22 20:28:00,
2013-02-22 15:33:00,36.1,24.4,30.29,ESE,114,0.0,0.0,62,0.00,,,0.04,WeatherTracker,2013-02-22 20:33:00,
2013-02-22 15:38:00,36.1,24.4,30.29,NE,42,0.0,0.0,62,0.00,,,0.04,WeatherTracker,2013-02-22 20:38:00,
2013-02-22 15:43:00,36.0,24.3,30.29,SE,132,0.0,0.0,62,0.00,,,0.04,WeatherTracker,2013-02-22 20:43:00,
2013-02-22 15:48:00,35.7,24.4,30.30,ESE,123,0.0,0.0,63,0.00,,,0.04,WeatherTracker,2013-02-22 20:48:00,
2013-02-22 15:53:00,35.6,25.0,30.29,NNE,17,4.0,0.0,65,0.00,,,0.04,WeatherTracker,2013-02-22 20:53:00,
2013-02-22 15:58:00,35.6,25.0,30.29,NE,44,1.0,0.0,65,0.00,,,0.04,WeatherTracker,2013-02-22 20:58:00,
2013-02-22 16:03:00,35.5,25.3,30.29,NNE,31,2.0,0.0,66,0.01,,,0.05,WeatherTracker,2013-02-22 21:03:00,
2013-02-22 16:08:00,35.6,25.4,30.30,NE,38,1.0,0.0,66,0.01,,,0.05,WeatherTracker,2013-02-22 21:08:00,
2013-02-22 16:14:00,35.3,24.7,30.29,ENE,65,0.0,0.0,65,0.01,,,0.05,WeatherTracker,2013-02-22 21:14:00,
2013-02-22 16:19:00,35.1,24.9,30.28,NNW,348,0.0,0.0,66,0.01,,,0.05,WeatherTracker,2013-02-22 21:19:00,
2013-02-22 16:24:00,34.9,24.7,30.28,ESE,119,1.0,0.0,66,0.01,,,0.05,WeatherTracker,2013-02-22 21:24:00,
2013-02-22 16:29:00,34.8,24.6,30.28,NNE,26,0.0,0.0,66,0.01,,,0.05,WeatherTracker,2013-02-22 21:29:00,
2013-02-22 16:34:00,34.8,25.0,30.28,NE,55,1.0,0.0,67,0.01,,,0.05,WeatherTracker,2013-02-22 21:34:00,
2013-02-22 16:39:00,34.6,24.4,30.27,ENE,76,1.0,0.0,66,0.01,,,0.05,WeatherTracker,2013-02-22 21:39:00,
2013-02-22 16:44:00,34.3,24.5,30.27,ESE,104,0.0,0.0,67,0.01,,,0.05,WeatherTracker,2013-02-22 21:44:00,
2013-02-22 16:49:00,34.3,24.5,30.27,NE,51,0.0,0.0,67,0.01,,,0.05,WeatherTracker,2013-02-22 21:49:00,
2013-02-22 16:54:00,34.1,24.7,30.27,ENE,61,3.0,0.0,68,0.01,,,0.05,WeatherTracker,2013-02-22 21:54:00,
2013-02-22 16:59:00,34.0,24.6,30.27,NE,55,0.0,0.0,68,0.00,,,0.05,WeatherTracker,2013-02-22 21:59:00,
2013-02-22 17:04:00,33.9,24.8,30.27,ENE,61,3.0,0.0,69,0.01,,,0.06,WeatherTracker,2013-02-22 22:04:00,
2013-02-22 17:09:00,33.9,24.8,30.27,NNE,28,3.0,0.0,69,0.01,,,0.06,WeatherTracker,2013-02-22 22:09:00,
2013-02-22 17:14:00,33.8,24.4,30.27,ENE,60,0.0,0.0,68,0.01,,,0.06,WeatherTracker,2013-02-22 22:14:00,
2013-02-22 17:19:00,33.8,24.7,30.27,NE,34,0.0,0.0,69,0.01,,,0.06,WeatherTracker,2013-02-22 22:19:00,
2013-02-22 17:24:00,33.7,24.6,30.27,ENE,70,0.0,0.0,69,0.01,,,0.06,WeatherTracker,2013-02-22 22:24:00,
2013-02-22 17:29:00,33.7,24.6,30.27,NE,48,0.0,0.0,69,0.01,,,0.06,WeatherTracker,2013-02-22 22:29:00,
2013-02-22 17:34:00,33.6,24.9,30.27,NE,48,0.0,0.0,70,0.01,,,0.06,WeatherTracker,2013-02-22 22:34:00,
2013-02-22 17:39:00,33.5,24.8,30.27,NE,48,0.0,0.0,70,0.01,,,0.06,WeatherTracker,2013-02-22 22:39:00,
2013-02-22 17:44:00,33.5,24.8,30.27,North,9,0.0,0.0,70,0.01,,,0.06,WeatherTracker,2013-02-22 22:44:00,
2013-02-22 17:49:00,33.4,25.0,30.27,North,9,1.0,0.0,71,0.01,,,0.06,WeatherTracker,2013-02-22 22:49:00,
2013-02-22 17:54:00,33.3,24.9,30.28,North,9,0.0,0.0,71,0.01,,,0.06,WeatherTracker,2013-02-22 22:54:00,
2013-02-22 17:59:00,33.3,25.3,30.29,North,9,0.0,0.0,72,0.01,,,0.06,WeatherTracker,2013-02-22 22:59:00,
2013-02-22 18:04:00,33.2,25.2,30.29,North,9,0.0,0.0,72,0.00,,,0.06,WeatherTracker,2013-02-22 23:04:00,
2013-02-22 18:09:00,33.3,25.3,30.29,SE,145,0.0,0.0,72,0.00,,,0.06,WeatherTracker,2013-02-22 23:09:00,
2013-02-22 18:15:00,33.3,25.3,30.30,SE,145,0.0,0.0,72,0.00,,,0.06,WeatherTracker,2013-02-22 23:15:00,
2013-02-22 18:20:00,33.3,25.3,30.30,SE,145,0.0,0.0,72,0.00,,,0.06,WeatherTracker,2013-02-22 23:20:00,
2013-02-22 18:25:00,33.2,24.8,30.29,SE,145,0.0,0.0,71,0.00,,,0.06,WeatherTracker,2013-02-22 23:25:00,
2013-02-22 18:30:00,33.2,25.2,30.29,SE,145,0.0,0.0,72,0.00,,,0.06,WeatherTracker,2013-02-22 23:30:00,
2013-02-22 18:35:00,33.0,25.3,30.28,SE,145,0.0,0.0,73,0.00,,,0.06,WeatherTracker,2013-02-22 23:35:00,
2013-02-22 18:40:00,32.8,25.1,30.28,SE,145,0.0,0.0,73,0.00,,,0.06,WeatherTracker,2013-02-22 23:40:00,
2013-02-22 18:45:00,32.6,25.6,30.28,SE,145,0.0,0.0,75,0.00,,,0.06,WeatherTracker,2013-02-22 23:45:00,
2013-02-22 18:50:00,32.5,25.2,30.29,SE,145,0.0,0.0,74,0.00,,,0.06,WeatherTracker,2013-02-22 23:50:00,
2013-02-22 18:55:00,32.3,25.0,30.29,SE,145,0.0,0.0,74,0.00,,,0.06,WeatherTracker,2013-02-22 23:55:00,
2013-02-22 19:00:00,32.1,25.1,30.29,SE,145,0.0,0.0,75,0.00,,,0.06,WeatherTracker,2013-02-23 00:00:00,
2013-02-22 19:05:00,31.9,24.9,30.30,SE,145,0.0,0.0,75,0.00,,,0.06,WeatherTracker,2013-02-23 00:05:00,
2013-02-22 19:10:00,31.8,25.1,30.29,SE,145,0.0,0.0,76,0.00,,,0.06,WeatherTracker,2013-02-23 00:10:00,
2013-02-22 19:15:00,31.7,25.0,30.29,SE,145,0.0,0.0,76,0.00,,,0.06,WeatherTracker,2013-02-23 00:15:00,
2013-02-22 19:20:00,31.6,25.2,30.29,SE,145,0.0,0.0,77,0.00,,,0.06,WeatherTracker,2013-02-23 00:20:00,
2013-02-22 19:25:00,31.6,24.9,30.29,SE,145,0.0,0.0,76,0.00,,,0.06,WeatherTracker,2013-02-23 00:25:00,
2013-02-22 19:30:00,31.5,25.1,30.29,SE,145,0.0,0.0,77,0.00,,,0.06,WeatherTracker,2013-02-23 00:30:00,
2013-02-22 19:35:00,31.4,25.0,30.30,SE,145,0.0,0.0,77,0.00,,,0.06,WeatherTracker,2013-02-23 00:35:00,
2013-02-22 19:40:00,31.4,25.0,30.30,SE,145,0.0,0.0,77,0.00,,,0.06,WeatherTracker,2013-02-23 00:40:00,
2013-02-22 19:45:00,31.3,24.9,30.29,SE,145,0.0,0.0,77,0.00,,,0.06,WeatherTracker,2013-02-23 00:45:00,
2013-02-22 19:50:00,31.4,25.3,30.28,SE,145,0.0,0.0,78,0.00,,,0.06,WeatherTracker,2013-02-23 00:50:00,
2013-02-22 19:55:00,31.3,25.6,30.29,SE,145,0.0,0.0,79,0.00,,,0.06,WeatherTracker,2013-02-23 00:55:00,
2013-02-22 20:00:00,31.2,25.2,30.29,SE,145,0.0,0.0,78,0.00,,,0.06,WeatherTracker,2013-02-23 01:00:00,
2013-02-22 20:06:00,31.2,25.2,30.29,SE,145,0.0,0.0,78,0.00,,,0.06,WeatherTracker,2013-02-23 01:06:00,
2013-02-22 20:11:00,31.1,25.1,30.29,SE,145,0.0,0.0,78,0.00,,,0.06,WeatherTracker,2013-02-23 01:11:00,
2013-02-22 20:16:00,31.1,25.1,30.29,SE,145,0.0,0.0,78,0.00,,,0.06,WeatherTracker,2013-02-23 01:16:00,
2013-02-22 20:21:00,31.0,24.7,30.29,SE,145,0.0,0.0,77,0.00,,,0.06,WeatherTracker,2013-02-23 01:21:00,
2013-02-22 20:26:00,30.9,24.9,30.30,SE,146,0.0,0.0,78,0.00,,,0.06,WeatherTracker,2013-02-23 01:26:00,
2013-02-22 20:31:00,31.0,25.0,30.31,SSE,167,0.0,0.0,78,0.00,,,0.06,WeatherTracker,2013-02-23 01:31:00,
2013-02-22 20:36:00,31.0,25.0,30.31,SSE,167,0.0,0.0,78,0.00,,,0.06,WeatherTracker,2013-02-23 01:36:00,
2013-02-22 20:41:00,31.0,25.0,30.30,SSE,167,0.0,0.0,78,0.00,,,0.06,WeatherTracker,2013-02-23 01:41:00,
2013-02-22 20:46:00,31.0,25.3,30.29,SSE,167,0.0,0.0,79,0.00,,,0.06,WeatherTracker,2013-02-23 01:46:00,
2013-02-22 20:51:00,30.9,25.2,30.29,SSE,167,0.0,0.0,79,0.00,,,0.06,WeatherTracker,2013-02-23 01:51:00,
2013-02-22 20:56:00,30.9,25.2,30.29,SSE,167,0.0,0.0,79,0.00,,,0.06,WeatherTracker,2013-02-23 01:56:00,
2013-02-22 21:01:00,30.8,25.1,30.29,SSE,167,0.0,0.0,79,0.00,,,0.06,WeatherTracker,2013-02-23 02:01:00,
2013-02-22 21:06:00,30.9,25.2,30.29,SSE,167,0.0,0.0,79,0.00,,,0.06,WeatherTracker,2013-02-23 02:06:00,
2013-02-22 21:11:00,30.9,25.2,30.28,SSE,167,0.0,0.0,79,0.00,,,0.06,WeatherTracker,2013-02-23 02:11:00,
2013-02-22 21:16:00,30.8,25.1,30.28,SSE,167,0.0,0.0,79,0.00,,,0.06,WeatherTracker,2013-02-23 02:16:00,
2013-02-22 21:21:00,30.7,25.0,30.29,SSE,167,0.0,0.0,79,0.00,,,0.06,WeatherTracker,2013-02-23 02:21:00,
2013-02-22 21:26:00,30.6,24.9,30.29,SSE,167,0.0,0.0,79,0.00,,,0.06,WeatherTracker,2013-02-23 02:26:00,
2013-02-22 21:31:00,30.7,25.3,30.29,SSE,167,0.0,0.0,80,0.00,,,0.06,WeatherTracker,2013-02-23 02:31:00,
2013-02-22 21:36:00,30.6,25.2,30.29,SSE,167,0.0,0.0,80,0.00,,,0.06,WeatherTracker,2013-02-23 02:36:00,
2013-02-22 21:42:00,30.6,25.2,30.29,SSE,167,0.0,0.0,80,0.00,,,0.06,WeatherTracker,2013-02-23 02:42:00,
2013-02-22 21:47:00,30.6,25.2,30.29,SSE,167,0.0,0.0,80,0.00,,,0.06,WeatherTracker,2013-02-23 02:47:00,
2013-02-22 21:52:00,30.6,25.2,30.29,SSE,167,0.0,0.0,80,0.00,,,0.06,WeatherTracker,2013-02-23 02:52:00,
2013-02-22 21:57:00,30.6,25.2,30.28,SSE,167,0.0,0.0,80,0.00,,,0.06,WeatherTracker,2013-02-23 02:57:00,
2013-02-22 22:02:00,30.6,25.5,30.29,SSE,167,0.0,0.0,81,0.00,,,0.06,WeatherTracker,2013-02-23 03:02:00,
2013-02-22 22:07:00,30.5,25.4,30.28,SSE,167,0.0,0.0,81,0.00,,,0.06,WeatherTracker,2013-02-23 03:07:00,
2013-02-22 22:12:00,30.5,25.4,30.29,SSE,167,0.0,0.0,81,0.00,,,0.06,WeatherTracker,2013-02-23 03:12:00,
2013-02-22 22:17:00,30.4,25.3,30.29,SSE,167,0.0,0.0,81,0.00,,,0.06,WeatherTracker,2013-02-23 03:17:00,
2013-02-22 22:22:00,30.4,25.3,30.29,SSE,167,0.0,0.0,81,0.00,,,0.06,WeatherTracker,2013-02-23 03:22:00,
2013-02-22 22:27:00,30.5,25.7,30.29,SSE,167,0.0,0.0,82,0.00,,,0.06,WeatherTracker,2013-02-23 03:27:00,
2013-02-22 22:32:00,30.5,25.7,30.29,SSE,167,0.0,0.0,82,0.00,,,0.06,WeatherTracker,2013-02-23 03:32:00,
2013-02-22 22:37:00,30.5,25.4,30.29,SSE,167,0.0,0.0,81,0.00,,,0.06,WeatherTracker,2013-02-23 03:37:00,
2013-02-22 22:42:00,30.6,25.5,30.29,SSE,167,0.0,0.0,81,0.00,,,0.06,WeatherTracker,2013-02-23 03:42:00,
2013-02-22 22:47:00,30.6,25.5,30.29,SSE,167,0.0,0.0,81,0.00,,,0.06,WeatherTracker,2013-02-23 03:47:00,
2013-02-22 22:52:00,30.7,25.3,30.29,SSE,167,0.0,0.0,80,0.00,,,0.06,WeatherTracker,2013-02-23 03:52:00,
2013-02-22 22:57:00,30.7,25.6,30.29,SSE,167,0.0,0.0,81,0.00,,,0.06,WeatherTracker,2013-02-23 03:57:00,
2013-02-22 23:02:00,30.7,25.6,30.29,SSE,167,0.0,0.0,81,0.00,,,0.06,WeatherTracker,2013-02-23 04:02:00,
2013-02-22 23:07:00,30.6,25.5,30.28,SSE,167,0.0,0.0,81,0.00,,,0.06,WeatherTracker,2013-02-23 04:07:00,
2013-02-22 23:12:00,30.6,25.5,30.28,SSE,167,0.0,0.0,81,0.00,,,0.06,WeatherTracker,2013-02-23 04:12:00,
2013-02-22 23:17:00,30.6,25.5,30.28,SSE,167,0.0,0.0,81,0.00,,,0.06,WeatherTracker,2013-02-23 04:17:00,
2013-02-22 23:23:00,30.6,25.8,30.28,SSE,167,0.0,0.0,82,0.00,,,0.06,WeatherTracker,2013-02-23 04:23:00,
2013-02-22 23:28:00,30.6,25.8,30.28,SSE,167,0.0,0.0,82,0.00,,,0.06,WeatherTracker,2013-02-23 04:28:00,
2013-02-22 23:33:00,30.6,26.1,30.28,SSE,167,0.0,0.0,83,0.00,,,0.06,WeatherTracker,2013-02-23 04:33:00,
2013-02-22 23:38:00,30.6,26.1,30.28,SSE,167,0.0,0.0,83,0.00,,,0.06,WeatherTracker,2013-02-23 04:38:00,
2013-02-22 23:43:00,30.6,26.1,30.28,SSE,167,0.0,0.0,83,0.00,,,0.06,WeatherTracker,2013-02-23 04:43:00,
2013-02-22 23:48:00,30.5,26.0,30.28,SSE,167,0.0,0.0,83,0.00,,,0.06,WeatherTracker,2013-02-23 04:48:00,
2013-02-22 23:53:00,30.5,26.0,30.28,SSE,167,0.0,0.0,83,0.00,,,0.06,WeatherTracker,2013-02-23 04:53:00,
2013-02-22 23:58:00,30.5,25.7,30.28,SSE,167,0.0,0.0,82,0.00,,,0.06,WeatherTracker,2013-02-23 04:58:00,